Weather History for KLGA - April, 2013

Change the Weather History Date:

Wednesday, April 24, 2013

  Actual Average Record
Temperature  
Mean Temperature 55 °F 56 °F  
Max Temperature 65 °F 64 °F 87 °F (2001)
Min Temperature 45 °F 47 °F 36 °F (1967)
Degree Days  
Heating Degree Days 10 10  
Month to date heating degree days 321 326  
Since 1 July heating degree days 4268 4462  
Cooling Degree Days 0 0  
Month to date cooling degree days 0 0  
Year to date cooling degree days 0 0  
Growing Degree Days 4 (Base 50)    
Moisture  
Dew Point 43 °F    
Average Humidity 67    
Maximum Humidity 89    
Minimum Humidity 44    
Precipitation  
Precipitation 0.00 in 0.13 in 2.06 in (1968)
Month to date precipitation 1.12 3.26  
Year to date precipitation 9.39 13.16  
Snow  
Snow 0.00 in 0.00 in T in (1971)
Month to date snowfall 0.0 0.5  
Since 1 July snowfall 22.2 26.9  
Snow Depth 0.00 in    
Sea Level Pressure  
Sea Level Pressure 29.96 in    
Wind  
Wind Speed 10 mph (SSW)    
Max Wind Speed 21 mph    
Max Gust Speed 28 mph    
Visibility 10 miles    
Events      
T = Trace of Precipitation, MM = Missing Value Source: NWS Daily Summary

Daily Weather History Graph

Daily Weather History Graph

Search for Another Location

Airport or City:

Trip Planner

Search our weather history database for the weather conditions in past years. The results will help you decide how hot, cold, wet, or windy it might be!

Date:

Astronomy

Apr. 24, 2013 Rise Set
Actual Time 6:03 AM EDT 7:44 PM EDT
Civil Twilight 5:34 AM EDT 8:13 PM EDT
Nautical Twilight 4:58 AM EDT 8:49 PM EDT
Astronomical Twilight 4:21 AM EDT 9:27 PM EDT
Moon 6:44 PM EDT (4/24) 5:05 AM EDT (4/24)
Length of Visible Light 14h 39m
Length of Day
13h 41m
Waxing Gibbous, 98% of the Moon is Illuminated
Apr 24
Waxing Gibbous
Apr 25
Full
May 2
Last Quarter
May 9
New
May 18
First Quarter

Hourly Weather History & Observations

Time (EDT) Temp. Windchill Dew Point Humidity Pressure Visibility Wind Dir Wind Speed Gust Speed Precip Events Conditions
12:51 AM 46.9 °F - 37.9 °F 71% 30.09 in 10.0 mi North 9.2 mph - N/A   Clear
1:51 AM 46.9 °F - 37.9 °F 71% 30.06 in 10.0 mi North 8.1 mph - N/A   Clear
2:51 AM 46.9 °F - 37.9 °F 71% 30.06 in 10.0 mi NNW 10.4 mph - N/A   Clear
3:51 AM 46.0 °F 43.1 °F 37.9 °F 73% 30.04 in 10.0 mi North 5.8 mph - N/A   Clear
4:51 AM 46.0 °F 42.5 °F 37.9 °F 73% 30.05 in 10.0 mi NW 6.9 mph - N/A   Clear
5:51 AM 46.0 °F 43.1 °F 37.0 °F 71% 30.06 in 10.0 mi NW 5.8 mph - N/A   Partly Cloudy
6:51 AM 46.0 °F 42.5 °F 37.9 °F 73% 30.06 in 10.0 mi NW 6.9 mph - N/A   Partly Cloudy
7:51 AM 48.9 °F - 37.9 °F 66% 30.07 in 10.0 mi NW 5.8 mph - N/A   Partly Cloudy
8:51 AM 50.0 °F - 37.9 °F 63% 30.06 in 10.0 mi NNW 4.6 mph - N/A   Clear
9:51 AM 55.0 °F - 39.9 °F 57% 30.04 in 10.0 mi West 3.5 mph - N/A   Partly Cloudy
10:51 AM 57.9 °F - 39.9 °F 51% 30.02 in 10.0 mi SW 8.1 mph - N/A   Partly Cloudy
11:51 AM 61.0 °F - 42.1 °F 50% 29.99 in 10.0 mi SW 11.5 mph - N/A   Scattered Clouds
12:51 PM 64.0 °F - 43.0 °F 46% 29.96 in 10.0 mi South 16.1 mph - N/A   Partly Cloudy
1:51 PM 61.0 °F - 44.1 °F 54% 29.94 in 10.0 mi South 13.8 mph - N/A   Partly Cloudy
2:51 PM 63.0 °F - 46.0 °F 54% 29.91 in 10.0 mi South 11.5 mph - N/A   Partly Cloudy
3:51 PM 61.0 °F - 46.0 °F 58% 29.88 in 10.0 mi South 17.3 mph 21.9 mph N/A   Scattered Clouds
4:51 PM 59.0 °F - 46.9 °F 64% 29.88 in 10.0 mi SSE 16.1 mph 21.9 mph N/A   Mostly Cloudy
5:51 PM 55.9 °F - 46.9 °F 72% 29.86 in 10.0 mi SSE 19.6 mph 23.0 mph N/A   Mostly Cloudy
6:19 PM 53.6 °F - 46.4 °F 77% 29.85 in 10.0 mi SSE 16.1 mph 24.2 mph N/A   Mostly Cloudy
6:32 PM 53.6 °F - 46.4 °F 77% 29.84 in 10.0 mi SSE 19.6 mph 26.5 mph N/A   Mostly Cloudy
6:51 PM 52.0 °F - 46.0 °F 80% 29.85 in 10.0 mi South 16.1 mph 26.5 mph N/A   Overcast
7:51 PM 51.1 °F - 46.9 °F 86% 29.86 in 9.0 mi South 17.3 mph 24.2 mph N/A   Mostly Cloudy
8:42 PM 51.8 °F - 46.4 °F 82% 29.88 in 10.0 mi South 12.7 mph 18.4 mph N/A   Mostly Cloudy
8:51 PM 52.0 °F - 48.0 °F 86% 29.88 in 10.0 mi SSE 8.1 mph - N/A   Mostly Cloudy
9:51 PM 54.0 °F - 48.0 °F 80% 29.88 in 10.0 mi South 10.4 mph - N/A   Mostly Cloudy
10:48 PM 51.8 °F - 48.2 °F 88% 29.89 in 9.0 mi South 8.1 mph - N/A   Mostly Cloudy
10:51 PM 52.0 °F - 48.0 °F 86% 29.89 in 9.0 mi South 9.2 mph - N/A   Mostly Cloudy
11:51 PM 52.0 °F - 48.0 °F 86% 29.87 in 10.0 mi South 8.1 mph - N/A   Mostly Cloudy